カタログに戻る

STARLINK-36081

運用中通信VLEO
NORAD 67498·PAYLOAD·🇺🇸 United States

打ち上げ Jan 18, 2026 から Cape Canaveral Space Force Station

Loading…

次のパス (今後24時間)

TLE

最新Source: CelesTrak SupGP

元期: Sep 14, 2026, 21:14 UTC

1 67498C 26012F   26257.88520833 -.00021504  00000+0 -77892-3 0  2570
2 67498  43.0010 326.0754 0001465 268.3085 151.0259 15.27586284    11

AllMySatでSTARLINK-36081をリアルタイム追跡

Download on the App Store